Change the Weather History Date:

Saturday, January 19, 2013

  Actual Average (KAQP) Record (KAQP)
Temperature  
Mean Temperature 18 °F -  
Max Temperature 37 °F 17 °F 46 °F (2015)
Min Temperature 0 °F 1 °F -20 °F (2008)
Degree Days  
Heating Degree Days 46    
Moisture  
Dew Point 14 °F    
Average Humidity 73    
Maximum Humidity 93    
Minimum Humidity 62    
Precipitation  
Precipitation 0.00 in - - ()
Sea Level Pressure  
Sea Level Pressure 29.96 in    
Wind  
Wind Speed 12 mph (WNW)    
Max Wind Speed 32 mph    
Max Gust Speed 46 mph    
Visibility 10 miles    
Events Snow    
Averages and records for this station are not official NWS values.
T = Trace of Precipitation, MM = Missing Value Source: NWS Daily Summary

Daily Weather History Graph

Daily Weather History Graph

Search for Another Location

Airport or City:

Trip Planner

Search our weather history database for the weather conditions in past years. The results will help you decide how hot, cold, wet, or windy it might be!

Date:

Astronomy

Jan. 19, 2013 Rise Set
Actual Time 7:58 AM CST 5:15 PM CST
Civil Twilight 7:25 AM CST 5:47 PM CST
Nautical Twilight 6:49 AM CST 6:23 PM CST
Astronomical Twilight 6:14 AM CST 6:59 PM CST
Moon 11:45 AM CST (1/19) 1:29 AM CST (1/19)
Length of Visible Light 10h 21m
Length of Day
9h 16m
First Quarter, 57% of the Moon is Illuminated
Jan 19
First Quarter
Jan 26
Full
Feb 3
Last Quarter
Feb 10
New
Feb 17
First Quarter

Hourly Weather History & Observations

Time (CST) Temp. Windchill Dew Point Humidity Pressure Visibility Wind Dir Wind Speed Gust Speed Precip Events Conditions
12:14 AM 26.6 °F 21.2 °F 24.8 °F 93% 29.71 in 10.0 mi South 4.6 mph - N/A   Clear
12:34 AM 28.4 °F 24.6 °F 24.8 °F 86% 29.71 in 10.0 mi SE 3.5 mph - N/A   Clear
12:54 AM 26.6 °F 22.6 °F 24.8 °F 93% 29.71 in 10.0 mi SSE 3.5 mph - N/A   Clear
1:14 AM 28.4 °F 24.6 °F 24.8 °F 86% 29.70 in 10.0 mi SE 3.5 mph - N/A   Clear
1:34 AM 26.6 °F 22.6 °F 24.8 °F 93% 29.70 in 10.0 mi South 3.5 mph - N/A   Clear
1:54 AM 28.4 °F 24.6 °F 24.8 °F 86% 29.69 in 10.0 mi SW 3.5 mph - N/A   Clear
2:13 AM 32.0 °F 27.5 °F 26.6 °F 80% 29.69 in 10.0 mi SSW 4.6 mph - N/A   Clear
2:34 AM 30.2 °F 24.3 °F 26.6 °F 86% 29.70 in 10.0 mi West 5.8 mph - N/A   Scattered Clouds
2:54 AM 30.2 °F 24.3 °F 26.6 °F 86% 29.71 in 10.0 mi West 5.8 mph - N/A   Clear
3:14 AM 32.0 °F 28.7 °F 26.6 °F 80% 29.70 in 10.0 mi NW 3.5 mph - N/A   Clear
3:34 AM 32.0 °F 24.8 °F 26.6 °F 80% 29.70 in 10.0 mi WNW 8.1 mph - N/A   Clear
3:54 AM 33.8 °F 29.6 °F 24.8 °F 70% 29.69 in 10.0 mi West 4.6 mph - N/A   Clear
4:14 AM 30.2 °F 26.7 °F 24.8 °F 80% 29.71 in 10.0 mi WNW 3.5 mph - N/A   Clear
4:34 AM 30.2 °F 25.4 °F 24.8 °F 80% 29.71 in 10.0 mi West 4.6 mph - N/A   Clear
4:54 AM 32.0 °F 27.5 °F 24.8 °F 75% 29.69 in 10.0 mi WSW 4.6 mph - N/A   Clear
5:14 AM 30.2 °F 25.4 °F 24.8 °F 80% 29.69 in 10.0 mi SW 4.6 mph - N/A   Clear
5:34 AM 30.2 °F 23.4 °F 24.8 °F 80% 29.70 in 10.0 mi SW 6.9 mph - N/A   Mostly Cloudy
5:54 AM 30.2 °F 23.4 °F 24.8 °F 80% 29.71 in 10.0 mi WSW 6.9 mph - N/A   Scattered Clouds
6:14 AM 30.2 °F 22.6 °F 24.8 °F 80% 29.72 in 10.0 mi West 8.1 mph - N/A   Mostly Cloudy
6:34 AM 32.0 °F 25.6 °F 26.6 °F 80% 29.73 in 10.0 mi West 6.9 mph - N/A   Overcast
6:54 AM 33.8 °F 25.3 °F 26.6 °F 75% 29.74 in 10.0 mi WNW 11.5 mph - N/A   Scattered Clouds
7:14 AM 35.6 °F 26.6 °F 26.6 °F 70% 29.74 in 10.0 mi NW 13.8 mph - N/A   Mostly Cloudy
7:34 AM 35.6 °F 25.5 °F 26.6 °F 70% 29.75 in 10.0 mi WNW 17.3 mph - N/A   Overcast
7:54 AM 37.4 °F 28.9 °F 28.4 °F 70% 29.76 in 10.0 mi WNW 13.8 mph 19.6 mph N/A   Overcast
8:13 AM 35.6 °F 27.1 °F 26.6 °F 70% 29.76 in 10.0 mi WNW 12.7 mph 18.4 mph N/A   Mostly Cloudy
8:34 AM 35.6 °F 27.1 °F 28.4 °F 75% 29.77 in 10.0 mi WNW 12.7 mph - N/A   Mostly Cloudy
8:54 AM 35.6 °F 27.5 °F 28.4 °F 75% 29.79 in 10.0 mi WNW 11.5 mph - N/A   Mostly Cloudy
9:14 AM 37.4 °F 27.8 °F 28.4 °F 70% 29.81 in 10.0 mi NW 17.3 mph 23.0 mph N/A   Scattered Clouds
9:34 AM 37.4 °F 27.8 °F 28.4 °F 70% 29.82 in 10.0 mi NW 17.3 mph 23.0 mph N/A   Clear
9:54 AM 35.6 °F 26.6 °F 28.4 °F 75% 29.83 in 10.0 mi WNW 13.8 mph 19.6 mph N/A   Clear
10:14 AM 37.4 °F 30.3 °F 28.4 °F 70% 29.84 in 10.0 mi WNW 10.4 mph - N/A   Scattered Clouds
10:34 AM 37.4 °F 29.3 °F 28.4 °F 70% 29.85 in 10.0 mi West 12.7 mph - N/A   Scattered Clouds
10:53 AM 37.4 °F 28.5 °F 28.4 °F 70% 29.85 in 10.0 mi WNW 15.0 mph 20.7 mph N/A   Mostly Cloudy
11:14 AM 37.4 °F 27.2 °F 28.4 °F 70% 29.86 in 10.0 mi NW 19.6 mph 25.3 mph N/A   Overcast
11:34 AM 37.4 °F 27.8 °F 28.4 °F 70% 29.85 in 10.0 mi NW 17.3 mph 31.1 mph N/A   Overcast
11:53 AM 35.6 °F 23.4 °F 26.6 °F 70% 29.87 in 10.0 mi NW 25.3 mph 35.7 mph N/A   Overcast
12:14 PM 28.4 °F 12.3 °F 24.8 °F 86% 29.90 in 10.0 mi North 32.2 mph 39.1 mph N/A   Overcast
12:34 PM 26.6 °F 10.8 °F 21.2 °F 80% 29.92 in 10.0 mi NNW 27.6 mph 36.8 mph N/A   Overcast
12:54 PM 24.8 °F 10.7 °F 19.4 °F 80% 29.94 in 10.0 mi NNW 19.6 mph 35.7 mph N/A   Overcast
1:34 PM 21.2 °F 3.5 °F 10.4 °F 63% 29.98 in 10.0 mi NW 27.6 mph 40.3 mph N/A   Scattered Clouds
1:54 PM 19.4 °F 2.1 °F 8.6 °F 63% 30.00 in 10.0 mi NW 24.2 mph 40.3 mph N/A   Scattered Clouds
2:14 PM 17.6 °F -1.0 °F 6.8 °F 63% 30.02 in 10.0 mi NW 26.5 mph 42.6 mph N/A Snow Light Snow
2:34 PM 17.6 °F -1.6 °F 6.8 °F 63% 30.02 in 10.0 mi NW 28.8 mph 41.4 mph N/A   Mostly Cloudy
2:54 PM 15.8 °F -4.4 °F 5.0 °F 62% 30.04 in 5.0 mi NNW 29.9 mph 46.0 mph N/A   Haze
3:14 PM 14.0 °F -5.5 °F 3.2 °F 62% 30.06 in 10.0 mi NW 25.3 mph 35.7 mph N/A   Scattered Clouds
3:34 PM 14.0 °F -5.1 °F 3.2 °F 62% 30.08 in 10.0 mi NW 24.2 mph 36.8 mph N/A   Scattered Clouds
3:54 PM 12.2 °F -9.3 °F 3.2 °F 67% 30.09 in 7.0 mi NW 29.9 mph 39.1 mph N/A   Mostly Cloudy
4:14 PM 12.2 °F -8.2 °F 3.2 °F 67% 30.11 in 5.0 mi NW 26.5 mph 39.1 mph N/A   Haze
4:34 PM 10.4 °F -12.3 °F 1.4 °F 67% 30.14 in 4.0 mi NW 32.2 mph 41.4 mph N/A   Haze
4:54 PM 8.6 °F -12.3 °F -0.4 °F 67% 30.16 in 7.0 mi NW 24.2 mph 36.8 mph N/A   Mostly Cloudy
5:14 PM 8.6 °F -12.3 °F -2.2 °F 62% 30.18 in 10.0 mi NW 24.2 mph 36.8 mph N/A   Scattered Clouds
5:34 PM 6.8 °F -11.8 °F -0.4 °F 72% 30.19 in 10.0 mi NW 17.3 mph 34.5 mph N/A   Scattered Clouds
5:54 PM 6.8 °F -13.8 °F -2.2 °F 67% 30.21 in 10.0 mi NW 21.9 mph 36.8 mph N/A   Scattered Clouds
6:14 PM 6.8 °F -13.8 °F -0.4 °F 72% 30.22 in 7.0 mi NW 21.9 mph 31.1 mph N/A   Mostly Cloudy
6:34 PM 5.0 °F -16.7 °F -0.4 °F 78% 30.23 in 3.0 mi NNW 23.0 mph 33.4 mph N/A   Haze
6:53 PM 5.0 °F -17.9 °F -2.2 °F 72% 30.24 in 7.0 mi NNW 26.5 mph 31.1 mph N/A   Mostly Cloudy
7:14 PM 5.0 °F -14.2 °F -2.2 °F 72% 30.26 in 10.0 mi NNW 17.3 mph 31.1 mph N/A   Mostly Cloudy
7:34 PM 3.2 °F -18.1 °F -2.2 °F 78% 30.27 in 7.0 mi NNW 20.7 mph 28.8 mph N/A   Mostly Cloudy
7:54 PM 3.2 °F -19.5 °F -5.8 °F 66% 30.28 in 10.0 mi NW 24.2 mph 29.9 mph N/A   Scattered Clouds
8:14 PM 3.2 °F -19.0 °F -5.8 °F 66% 30.29 in 10.0 mi NW 23.0 mph 33.4 mph N/A   Scattered Clouds
8:34 PM 3.2 °F -17.1 °F -5.8 °F 66% 30.30 in 10.0 mi NNW 18.4 mph 27.6 mph N/A   Scattered Clouds
8:54 PM 1.4 °F -19.4 °F -5.8 °F 72% 30.30 in 10.0 mi NNW 18.4 mph 27.6 mph N/A   Scattered Clouds
9:14 PM 1.4 °F -18.2 °F -5.8 °F 72% 30.30 in 10.0 mi NW 16.1 mph 19.6 mph N/A   Scattered Clouds
9:34 PM 1.4 °F -18.2 °F -7.6 °F 66% 30.29 in 10.0 mi NW 16.1 mph 27.6 mph N/A   Clear
9:54 PM 1.4 °F -19.4 °F -5.8 °F 72% 30.30 in 10.0 mi NW 18.4 mph 24.2 mph N/A   Clear
10:14 PM 1.4 °F -18.2 °F -7.6 °F 66% 30.33 in 10.0 mi NW 16.1 mph 20.7 mph N/A   Scattered Clouds
10:34 PM 1.4 °F -18.2 °F -7.6 °F 66% 30.33 in 10.0 mi NW 16.1 mph 24.2 mph N/A   Scattered Clouds
10:54 PM -0.4 °F -20.5 °F -7.6 °F 72% 30.32 in 10.0 mi NNW 16.1 mph 24.2 mph N/A   Clear
11:14 PM -0.4 °F -21.2 °F -7.6 °F 72% 30.32 in 10.0 mi NNW 17.3 mph 23.0 mph N/A   Clear
11:34 PM -0.4 °F -20.5 °F -9.4 °F 66% 30.32 in 10.0 mi NNW 16.1 mph 19.6 mph N/A   Clear
11:53 PM -0.4 °F -19.2 °F -9.4 °F 66% 30.32 in 10.0 mi NNW 13.8 mph - N/A   Clear